User: anonymous   Login
Location: Buckeye Ditch
(40.9104°N, 122.9517°W)
Time: 22:48:59
(UTC+00:00)
Language:

Cosmos 1515 Rocket - Orbit

View from above orbital plane
View from above orbital plane
View from above satellite
View from above satellite

Ground track
Ground track

The orbit data is extracted from the following two-line orbital elements,

1 14552U 83122B   24170.55894278  .00000561  00000-0  63389-4 0  9990
2 14552  82.5231 200.5214 0016880   5.6572 354.4830 14.84678585167447
Epoch (UTC): 18 June 2024 13:24:52
Eccentricity: 0.0016880
inclination: 82.5231°
perigee height: 603 km
apogee height: 626 km
right ascension of ascending node: 200.5214°
argument of perigee: 5.6572°
revolutions per day: 14.84678585
mean anomaly at epoch: 354.4830°
orbit number at epoch: 16744

The dashed part of the orbit path shows where the satellite is in the earth's shadow,  

DLR